This demonstration page uses our WeatherBlox Daily Observations layout. Learn more.

39.92423, -83.80882

Hourly Observations for June 3, 2020

Temp ( °F °C ) Dew Point ( °F °C ) Humidity (%) Winds ( mph kmh ) Pressure ( in mb ) Visibility ( mi km ) Precip ( " mm )
12:56 am 00:56 Clear 75 23.9 56 13.3 52 52 WSW 15 24 29.91 1013 10 16.0934 0 0
1:56 am 01:56 Clear 74 23.3 55 12.8 52 52 WSW 16 26 29.9 1013 10 16.0934 0 0
2:56 am 02:56 Clear 72 22.2 56 13.3 57 57 WSW 13 20 29.9 1013 10 16.0934 0 0
3:56 am 03:56 Clear 69 20.6 57 13.9 66 66 WSW 9 15 29.9 1013 10 16.0934 0 0
4:56 am 04:56 Clear 68 20 57 13.9 68 68 WSW 9 15 29.9 1012 10 16.0934 0.01 0.254
5:56 am 05:56 Clear 67 19.4 57 13.9 71 71 SW 9 15 29.88 1012 10 16.0934 0 0
6:56 am 06:56 Sunny 68 20 58 14.4 70 70 SW 10 17 29.88 1012 10 16.0934 0.01 0.254
7:56 am 07:56 Sunny 71 21.7 59 15 66 66 WSW 14 22 29.89 1012 10 16.0934 0.01 0.254
8:56 am 08:56 Sunny 73 22.8 61 16.1 66 66 WSW 14 22 29.88 1012 10 16.0934 0.06 1.524
9:56 am 09:56 Sunny 77 25 63 17.2 62 62 SW 20 31 29.85 1011 10 16.0934 0 0
10:56 am 10:56 Sunny 80 26.7 66 18.9 62 62 WSW 18 30 29.84 1010 10 16.0934 0 0
11:56 am 11:56 Sunny 83 28.3 68 20 61 61 W 15 24 29.85 1011 10 16.0934 0 0
12:56 pm 12:56 Sunny 84 28.9 69 20.6 61 61 W 15 24 29.85 1011 10 16.0934 0 0
1:56 pm 13:56 Mostly Cloudy 86 30 70 21.1 59 59 W 16 26 29.83 1010 10 16.0934 0 0
2:56 pm 14:56 Partly Cloudy 86 30 69 20.6 57 57 W 13 20 29.83 1010 10 16.0934 0 0
3:56 pm 15:56 Windy with Storms Likely 78 25.6 69 20.6 74 74 NW 25 41 29.83 1010 8 12.87472 0.001 0.001
4:05 pm 16:05 Cloudy with Heavy Thunderstorms 75 24 64 18 69 69 VRB 6 9 29.8 1009 3 4.82802 0.001 0.001
4:42 pm 16:42 Mostly Cloudy 84 29 70 21 62 62 Calm 29.77 1008 10 16.0934 0 0
4:56 pm 16:56 Mostly Sunny 83 28.3 71 21.7 67 67 Calm 29.8 1009 10 16.0934 0 0
5:56 pm 17:56 Cloudy 83 28.3 70 21.1 65 65 NNW 7 11 29.79 1009 10 16.0934 0 0
6:36 pm 18:36 Partly Cloudy with Nearby Thunderstorms 82 28 66 19 58 58 N 13 20 29.73 1007 10 16.0934 0 0
6:56 pm 18:56 Sunny with Nearby Thunderstorms 82 27.8 64 17.8 55 55 N 9 15 29.78 1009 10 16.0934 0 0
7:31 pm 19:31 Cloudy 81 27 66 19 62 62 ENE 3 6 29.77 1008 10 16.0934 0 0
7:56 pm 19:56 Cloudy 80 26.7 68 20 67 67 Calm 29.8 1009 10 16.0934 0 0
8:56 pm 20:56 Mostly Sunny 74 23.3 68 20 82 82 S 3 6 29.83 1010 10 16.0934 0 0
9:56 pm 21:56 Mostly Cloudy with Light Rain 71 21.7 70 21.1 96 96 SW 3 6 29.84 1010 10 16.0934 0.001 0.001
10:56 pm 22:56 Mostly Cloudy 71 21.7 68 20 90 90 S 3 6 29.85 1011 10 16.0934 0.001 0.001
11:56 pm 23:56 Cloudy 70 21.1 68 20 93 93 SE 5 7 29.84 1011 10 16.0934 0 0

Powered by AerisWeather